User: anonymous   Login
Location: Unspecified
(0.0000°N, 0.0000°E)
Time: 02:58:02
(UTC+00:00)
Language:

STARLINK-3323 - Orbit

View from above orbital plane
View from above orbital plane
View from above satellite
View from above satellite

Ground track
Ground track

The orbit is defined by the following mean orbital elements,

1 50804U          26145.46116409 +.00000000 +00000-0 -15073-3 0 00009
2 50804  53.2112 174.4810 0001150  91.8164 268.2960 15.08854919    07
Epoch (UTC): 25 May 2026 11:04:04
Eccentricity: 0.0001150
inclination: 53.2112°
perigee height: 539 km
apogee height: 540 km
right ascension of ascending node: 174.4810°
argument of perigee: 91.8164°
revolutions per day: 15.08854919
mean anomaly at epoch: 268.2960°

The dashed part of the orbit path shows where the satellite is in the earth's shadow,  

DLR